World > North America > United States > Texas > Ricardo

Hourly Ricardo, TX Regional Weather

Feedback E-mail the Weather

Quick WX

Ricardo, TX Weather Maps

°F °C°F °C
Ricardo Weather Map
UTC Time: 8/9/2022, 02:43
Your Time:

Ricardo, TX Regional Weather

Expires:202208090300;;708600
ASUS44 KSJT 090215
RWRSJT
WEST CENTRAL TEXAS REGIONAL WEATHER ROUNDUP
NATIONAL WEATHER SERVICE SAN ANGELO TX
900 PM CDT MON AUG 08 2022

NOTE: "FAIR" INDICATES FEW OR NO CLOUDS BELOW 12,000 FEET WITH NO
SIGNIFICANT WEATHER AND/OR OBSTRUCTIONS TO VISIBILITY.


TXZ229-232-234-239-242-243-245-247-249-250-
253-255-257-343-347-443-090300-
TEXAS COASTAL BEND, RIO GRANDE PLAINS DEEP SOUTH TEXAS
  
CITY           SKY/WX    TMP DP  RH WIND       PRES   REMARKS
VICTORIA       CLEAR     84  72  67 SE14      30.00R                  
BEEVILLE       FAIR      83  67  58 SE8       29.98R                  
ROCKPORT       PTCLDY    86  76  71 SE10      29.99R                  
PORT ARANSAS   PTCLDY    85  77  78 E13       30.00R                  
PORT LAVACA    CLEAR     84  75  74 SE9       30.00R                  
CORPUS CHRISTI PTCLDY    83  75  77 SE12      29.98R                  
KINGSVILLE NAS NOT AVBL                                               
COTULLA        MOCLDY    82  71  69 SE7       29.97S                  
LAREDO         CLOUDY    84  65  52 SE10      29.97R                  
BROWNSVILLE    CLEAR     85  76  74 E9        29.98R                  
PORT ISABEL    PTCLDY    85  76  74 SE10      29.98R                  
HEBBRONVILLE   MOCLDY    77  71  81 CALM      30.00R                  
MCALLEN        CLEAR     85  74  69 E13       29.97R                  
WESLACO        NOT AVBL                                          

SKY/WX - Weather  TMP - Temperature  DP - Dew Point  RH - Humidity
WIND - Wind Direction/Speed PRES - Barometric Pressure VSB - Visibility
WCI - Wind Chill Index E13G22 Wind - East Wind 13 mph/Gusts of 22 mph

Trending Headlines

Ricardo Radar Loop



Ricardo Quick Facts


National Two Day Weather Forecast


E-mail the Ricardo Weather Forecast

Voice your opinion or tell us about page issues...